Tracking 19562 objects as of 24-Mar-2019
HD Live streaming from Space Station
objects crossing your sky now

COSMOS 1719

Track COSMOS 1719 now!
10-day predictions
COSMOS 1719 is classified as:


NORAD ID: 16452
Int'l Code: 1986-002D
Perigee: 1,461.7 km
Apogee: 1,491.3 km
Inclination: 74.0 °
Period: 115.3 minutes
Semi major axis: 7847 km
RCS: 0.7101 m2 (medium)
Launch date: January 9, 1986
Source: Commonwealth of Independent States (former USSR) (CIS)
Launch site: PLESETSK MISSILE AND SPACE COMPLEX (PKMTR)
aabbcc
Your satellite tracking list
Your tracking list is empty




NASA's NSSDC Master Catalog

Two Line Element Set (TLE):
1 16452U 86002D   19082.88542597 -.00000022 +00000-0 -38532-4 0  9993
2 16452 073.9865 240.9441 0018815 359.8148 111.7477 12.48836915513636
Source of the keplerian elements: AFSPC